Tracking 19149 objects as of 20-Apr-2018
HD Live streaming from Space Station
objects crossing your sky now

IRS B3

Track IRS B3 now!
10-day predictions
IRS B3 is classified as:


NORAD ID: 23827
Int'l Code: 1996-017A
Perigee: 822.0 km
Apogee: 825.7 km
Inclination: 98.8 °
Period: 101.2 minutes
Semi major axis: 7194 km
RCS: 2.718 m2 (large)
Launch date: March 21, 1996
Source: India (IND)
Launch site: SRIHARIKOTA (SRI)

Remote sensing.
aabbcc
Your satellite tracking list
Your tracking list is empty




NASA's NSSDC Master Catalog

Two Line Element Set (TLE):
1 23827U 96017A   18109.82678854  .00000025  00000-0  31206-4 0  9995
2 23827  98.7570  50.0319 0002562 216.9115 143.1887 14.22546461146006
Source of the keplerian elements: AFSPC